Theta_e
348 349 349 350 350 348 342 342 340 337 336 334 336 338 338 340 341 341 342 345 349 348 346 348 348 348 349 350 349 348 348 348 348 349 348 346 345 343 342 342 341 339 338
348 350 351 352 353 353 347 342 339 336 336 337 338 339 340 342 342 343 340 342 348 351 351 348 346 345 344 346 346 346 345 344 343 342 341 342 345 346 346 345 344 342 340
350 354 352 354 356 358 351 341 338 337 334 335 338 338 339 340 340 343 340 339 341 349 348 346 344 341 338 336 335 336 337 337 337 336 336 336 338 341 347 347 345 344 343
351 353 348 353 357 358 348 338 338 333 333 333 337 338 339 339 339 337 337 336 339 340 345 345 342 339 336 336 336 335 334 333 333 332 332 332 333 335 337 342 344 345 344
347 350 347 351 359 355 346 338 337 335 333 333 334 338 339 338 336 333 335 337 337 338 342 344 341 339 335 334 334 333 332 332 332 332 331 332 332 332 333 334 336 339 341
345 348 346 352 357 353 344 338 339 335 334 333 331 333 335 336 334 334 332 332 335 336 340 341 339 337 334 332 332 331 331 331 331 331 331 331 332 332 332 332 332 333 334
346 349 345 348 354 351 345 342 339 338 332 336 333 333 333 336 336 333 331 332 334 337 337 338 338 335 332 332 331 329 329 329 329 330 330 332 332 332 332 332 332 332 333
346 347 348 348 353 349 345 343 341 332 333 336 330 330 325 329 333 334 331 332 334 334 335 337 337 338 337 335 335 328 328 328 329 330 330 332 330 331 330 330 331 332 332
345 348 348 349 353 349 342 343 342 339 328 334 340 330 323 320 328 333 335 331 334 333 334 336 339 339 339 338 333 333 329 328 330 331 330 330 329 329 329 328 329 330 330
345 347 348 349 352 348 352 343 340 339 338 331 333 335 338 337 324 326 331 332 333 334 336 334 336 338 339 338 335 332 327 329 330 330 330 329 328 328 328 327 328 328 329
348 345 346 349 352 347 348 345 342 342 334 330 329 330 336 331 334 327 322 327 331 332 334 335 335 335 339 338 335 333 327 328 328 327 327 325 325 326 327 327 328 327 328
348 348 346 352 352 350 346 343 344 343 340 339 332 334 329 326 325 325 322 326 326 329 331 333 335 334 336 335 330 325 329 326 325 324 322 322 323 324 326 326 326 326 327
347 350 351 349 348 347 344 343 343 342 342 338 339 331 330 327 326 325 323 322 323 327 329 331 332 333 332 332 331 326 325 323 322 321 321 320 321 323 322 321 323 324 325
350 349 348 345 342 339 340 341 342 339 342 339 341 341 331 329 329 327 324 321 319 321 325 330 330 331 331 331 326 324 328 322 320 320 319 319 320 319 319 319 320 321 320
344 344 343 340 337 333 333 335 338 338 342 342 344 342 337 330 330 328 325 323 318 314 317 328 324 334 331 329 326 328 330 320 319 319 318 319 318 317 317 317 318 317 317
345 343 340 340 335 335 331 331 334 336 339 338 336 338 338 331 331 327 325 323 322 317 314 323 325 331 332 326 326 327 328 321 324 318 319 319 316 316 315 315 315 314 316
344 342 340 336 335 331 332 329 329 333 336 337 339 335 336 336 329 326 326 324 322 322 317 321 326 330 330 327 325 327 327 327 326 318 317 318 315 314 314 313 312 313 315
340 341 339 337 335 334 333 331 329 328 334 336 337 335 334 330 335 333 327 331 327 329 323 323 323 322 325 327 326 327 326 324 326 317 317 316 314 314 313 312 311 312 312
342 340 340 338 335 333 333 334 330 331 333 334 336 335 331 333 331 329 330 328 328 327 328 320 319 322 322 324 324 327 328 329 325 320 317 317 313 313 313 312 312 312 309
339 338 339 337 336 334 330 330 332 333 334 336 338 336 334 332 333 333 330 330 330 327 328 322 320 320 321 326 323 322 323 326 324 325 322 319 316 315 314 313 314 313 309
334 338 337 339 337 334 330 332 332 332 334 335 334 332 333 330 328 330 329 332 333 328 326 325 322 321 321 321 323 325 323 324 327 326 322 326 323 325 321 317 316 311 309
332 333 335 331 329 331 318 315 326 338 336 336 335 336 333 326 323 318 319 319 331 332 333 324 324 324 328 325 324 323 323 321 320 326 321 322 325 323 322 320 309 309 308
332 333 329 330 333 335 315 312 314 336 337 337 335 334 330 331 324 325 316 316 316 315 318 333 331 330 330 330 328 326 325 322 321 324 321 319 326 322 323 318 307 307 306
327 328 331 332 331 331 312 307 309 329 330 332 336 337 331 329 332 329 330 327 327 329 329 327 333 334 335 333 329 328 326 325 323 323 325 317 325 320 324 322 307 307 305
325 326 327 329 332 332 311 309 312 328 330 330 335 337 337 332 318 309 328 325 328 330 317 312 310 310 308 309 316 322 320 319 318 320 324 319 322 319 320 319 318 306 304
322 323 325 328 323 331 316 306 312 332 327 326 330 334 316 329 310 308 326 326 325 327 328 322 320 314 311 313 306 322 322 317 318 317 324 318 320 319 315 321 320 318 316
Wind_Speed
7 7 6 5 4 3 4 3 1 1 3 4 3 2 1 2 1 0 7 6 7 7 8 9 9 9 9 10 8 7 6 6 7 6 10 10 10 11 12 14 13 12 12
6 7 6 6 5 4 2 3 2 2 3 2 1 2 2 2 0 1 5 8 6 6 9 10 10 10 9 9 8 9 9 8 8 8 7 7 8 10 15 15 14 14 13
8 8 7 7 5 4 3 3 4 3 4 4 1 4 4 3 4 2 2 3 10 7 8 9 9 9 9 9 10 9 9 8 9 8 9 9 9 11 11 17 15 14 14
10 9 8 7 5 4 5 4 4 4 4 4 3 4 3 4 4 4 2 3 0 8 8 7 7 8 8 10 10 10 9 9 9 9 9 10 10 11 12 12 11 15 15
12 10 8 7 5 6 5 5 4 4 4 4 5 3 2 3 4 4 3 3 2 3 6 9 6 7 6 7 8 8 8 8 7 8 9 10 11 11 10 10 10 10 10
13 11 9 8 6 7 6 5 4 4 4 5 5 5 4 3 4 3 4 5 5 5 4 8 8 8 5 5 5 6 6 6 6 8 8 9 9 9 10 10 11 12 13
12 11 9 9 8 7 7 7 6 6 6 4 4 5 5 5 5 4 5 5 5 6 6 5 4 6 7 6 4 2 4 5 5 6 7 8 9 11 11 11 11 12 12
11 9 10 9 9 7 8 8 8 6 7 7 7 6 6 6 7 8 6 5 6 5 6 7 4 3 2 4 6 3 1 4 6 7 7 7 9 10 11 12 12 14 15
12 12 12 11 9 9 8 9 9 9 7 7 11 5 5 6 8 8 9 7 8 7 6 5 6 6 5 4 5 9 3 3 8 9 8 8 9 11 12 14 14 15 16
13 10 10 11 11 9 8 9 8 8 9 7 8 9 7 8 5 5 7 8 7 8 7 6 7 6 5 6 1 3 1 5 9 9 9 8 9 12 15 15 14 15 17
12 13 11 12 11 9 9 9 9 10 8 9 7 8 9 8 7 7 5 8 8 8 8 8 5 7 6 5 5 6 2 6 8 8 6 7 10 13 14 15 15 17 19
9 11 12 10 9 8 8 8 8 10 10 8 8 7 8 7 8 8 8 5 8 8 6 6 6 7 5 5 4 3 2 5 5 4 6 9 11 12 13 15 18 20 21
9 10 11 7 4 3 5 5 6 10 10 9 10 9 8 8 6 6 7 6 5 6 6 6 6 5 5 4 2 4 6 4 4 5 7 8 10 11 13 16 18 20 21
5 6 8 7 7 4 3 6 6 9 10 10 12 10 8 7 6 7 7 7 6 6 6 5 6 7 5 4 4 3 5 6 2 5 6 7 8 11 14 14 17 19 20
10 12 13 13 11 10 5 5 7 11 9 8 9 10 9 7 6 6 6 6 8 6 8 8 6 8 5 4 2 5 4 8 1 3 6 6 8 10 11 13 16 19 21
15 16 17 15 14 16 13 6 5 12 11 9 9 10 9 7 7 6 6 6 5 6 5 3 8 5 5 4 5 5 4 5 11 5 2 4 9 10 11 13 17 20 21
14 13 12 13 14 15 16 20 16 12 13 12 11 11 12 9 8 7 6 6 5 4 6 4 3 6 6 6 3 3 5 4 2 6 1 4 9 9 11 14 17 20 22
9 11 12 11 14 13 11 13 14 15 15 13 15 13 14 9 9 7 6 6 6 4 4 6 5 4 6 5 4 5 4 4 4 7 3 5 4 6 9 14 17 18 17
9 11 11 13 12 9 11 13 11 13 14 14 15 15 11 12 8 9 8 7 6 5 5 6 6 4 4 4 6 6 4 2 5 8 9 6 4 1 6 9 12 15 12
10 10 11 11 10 12 10 11 13 13 15 12 13 13 14 15 12 13 10 10 7 7 7 6 6 6 6 6 5 4 3 2 3 2 2 2 5 6 3 7 14 13 10
8 9 9 12 13 13 10 12 12 12 13 13 14 14 13 13 14 13 10 11 10 10 9 9 7 7 6 6 6 2 3 3 3 2 4 2 4 2 4 10 11 10 11
3 5 10 11 11 8 11 12 13 12 14 16 16 17 12 14 13 14 13 6 12 13 11 9 8 7 6 5 5 3 2 3 1 5 4 4 2 3 5 7 8 7 9
8 5 6 6 11 14 12 14 18 15 12 12 13 14 12 12 12 12 14 13 11 10 9 8 10 7 7 7 5 6 4 3 4 1 3 4 1 3 4 8 7 5 4
9 9 10 9 10 9 11 13 14 12 13 15 15 16 15 13 14 15 14 15 18 16 15 10 9 8 7 4 7 4 3 3 5 5 3 4 2 4 2 6 7 3 2
7 8 9 12 12 11 12 16 13 12 14 15 16 16 17 15 13 13 13 14 16 14 9 8 6 7 9 4 5 5 6 5 5 4 6 5 2 4 4 4 8 5 2
8 8 11 12 12 14 13 15 15 10 12 10 12 14 13 17 14 19 19 11 11 12 12 10 8 3 4 6 6 8 7 7 6 5 5 4 3 4 4 4 4 6 6
Wind_Direction
211 210 209 218 210 169 200 209 220 216 184 223 233 246 248 349 95 18 98 80 86 97 102 104 98 91 85 89 88 80 73 68 43 270 252 260 260 261 258 256 257 258 256
210 220 213 223 218 218 206 231 194 190 229 267 163 184 170 162 210 268 117 113 74 76 99 101 99 93 89 90 87 75 65 54 41 33 17 1 339 293 259 260 259 256 256
210 249 231 232 230 201 222 209 201 214 231 236 198 180 169 173 140 139 236 144 141 112 105 106 100 95 91 85 79 71 62 52 42 25 15 4 2 344 305 261 259 261 257
224 207 235 237 231 215 206 213 220 220 229 222 184 206 151 191 156 183 207 191 16 134 141 110 105 102 98 92 84 73 64 51 46 31 16 3 358 360 359 4 302 268 262
209 226 226 229 226 227 214 214 218 242 193 230 193 195 186 202 196 174 146 188 137 221 124 126 117 101 101 89 80 64 57 50 38 29 15 5 6 6 358 343 338 338 327
208 204 228 232 207 227 213 211 213 212 248 209 220 160 205 193 203 184 190 208 150 170 198 161 168 135 128 106 74 50 41 44 28 23 9 354 355 357 347 345 342 334 325
213 207 227 211 221 223 223 196 194 202 218 204 205 188 193 199 209 216 208 203 162 200 150 164 222 158 155 173 151 65 21 15 11 8 359 338 348 351 348 338 328 323 323
217 215 222 220 212 211 204 202 207 214 229 194 221 203 202 191 213 217 207 201 182 180 181 198 162 212 213 197 113 169 289 339 328 332 334 336 344 345 341 339 329 320 316
214 209 213 226 199 219 200 207 205 218 226 209 240 238 221 240 165 183 212 212 181 216 210 203 203 200 213 264 189 184 190 328 311 311 308 318 332 337 331 328 328 323 317
216 193 202 218 214 208 219 202 211 225 242 218 203 239 276 332 231 168 208 208 210 233 220 216 194 223 222 241 144 272 36 318 317 316 299 315 332 326 328 328 324 321 318
213 208 210 210 213 217 208 222 210 213 210 251 214 218 226 238 244 285 246 191 207 221 209 217 235 226 206 262 260 93 16 330 323 316 324 339 335 328 322 324 324 318 313
199 204 212 206 220 237 220 213 222 214 235 225 251 243 234 227 229 233 246 247 201 181 213 216 197 234 223 227 256 5 35 338 321 10 0 349 333 320 322 327 323 317 309
201 182 186 176 171 250 265 254 233 248 228 231 226 235 238 243 251 251 252 250 221 155 200 205 212 215 216 235 287 335 103 58 32 1 347 335 322 328 330 331 319 314 316
127 140 145 135 133 98 1 315 282 251 245 237 237 243 256 242 239 246 244 248 224 204 196 225 197 199 202 238 27 253 178 123 33 353 335 329 339 326 329 326 316 318 319
152 147 149 142 136 125 114 9 295 274 264 242 244 236 237 242 234 239 239 243 248 218 212 173 203 206 208 206 94 293 291 109 218 350 337 332 338 323 322 324 327 328 324
169 158 157 157 156 161 149 144 286 274 254 248 237 224 229 235 228 228 230 230 240 263 246 158 219 156 200 233 159 262 285 278 197 177 287 305 336 325 339 341 339 331 324
169 171 177 171 170 164 175 161 179 248 262 241 243 230 222 225 235 212 216 215 214 230 250 160 170 168 211 235 240 261 261 294 178 139 67 319 322 353 357 346 343 334 337
212 212 197 216 212 194 184 195 190 181 228 235 234 228 224 202 222 228 216 222 203 197 255 195 186 182 234 191 248 261 271 310 319 130 109 271 359 16 8 354 350 339 342
226 228 223 216 222 202 206 221 203 199 215 219 232 224 220 222 194 203 222 199 196 202 205 196 178 206 210 206 211 231 246 290 252 141 204 207 111 354 9 360 358 353 3
273 206 229 216 225 216 205 218 220 204 218 233 238 231 216 219 203 200 196 219 212 210 202 213 191 183 210 176 241 254 222 223 321 352 170 161 253 179 222 19 26 9 46
249 255 239 232 226 222 225 236 232 225 238 227 220 213 210 217 209 200 194 209 205 218 203 215 207 207 195 195 223 140 262 322 149 311 333 316 323 20 92 74 31 35 64
278 294 249 220 227 239 250 225 234 239 230 228 222 220 216 213 208 195 204 215 210 213 232 224 227 223 202 208 219 241 269 304 296 130 312 313 340 349 36 47 37 55 72
325 280 259 269 262 251 222 216 221 232 229 228 226 230 218 219 214 192 207 203 231 229 256 239 251 244 219 210 234 217 204 252 265 354 281 294 92 340 66 110 67 56 71
317 311 302 271 254 249 232 217 215 228 238 244 235 224 229 227 212 206 193 206 218 219 227 231 238 254 251 221 219 231 255 254 241 228 164 284 53 319 111 116 121 100 123
311 301 291 292 281 260 222 220 217 229 234 239 243 234 223 216 214 196 197 200 214 214 192 195 100 71 75 49 279 210 220 233 249 208 154 270 312 319 298 161 132 147 189
296 305 302 293 281 272 258 221 206 230 231 233 234 240 228 233 193 199 200 199 191 207 203 189 203 159 151 184 260 258 269 258 253 257 114 261 307 336 299 134 160 170 193